Location: Newark
(28.4500°N, 16.2500°W)
Time: 18:03:43
(UTC+00:00)

JUGNU - Pass Details

Date: 28 October 2019
Orbit: 836 x 864 km, 20.0° (Epoch: 21 November)

Event Time Altitude Azimuth Distance (km) Brightness Sun altitude
Rises 19:39:25 0° 240° (WSW) 3,376 ? -17.2°
Reaches altitude 10° 19:42:14 10° 230° (SW) 2,446 ? -17.9°
Maximum altitude 19:47:18 30° 171° (S) 1,465 ? -19.0°
Enters shadow 19:49:43 22° 132° (SE) 1,746 ? -19.5°
